[[{"header":{"parameterUnit":"m.s-1","parameterCategory":1,"la1":30.2991,"la2":30.254,"lo1":-89.0895,"lo2":-89.0444,"dy":0.0017,"dx":0.0017,"nx":28,"ny":28,"refTime":"2024-12-10T03:00:00:Z","depth":0,"parameterNumber":2,"parameterNumberName":"U-component_of_WINDS"},"data":[0,0,0,0,0,0,0,0,0,0,0,0,0,0,0,0,0,0,0,0,0,0,0,0,0,0,0,0,0,0,0,0,0,0,0,0,0,0,0,0,0,0,0,0,0,0,0,0,0,0,0,0,0,0,0,0,0,0,2.0197,2.0198,0,2.0222,2.0223,2.0223,2.0178,2.0176,2.0175,2.0173,2.0201,2.0204,2.0206,0,0,0,0,0,0,0,0,0,0,0,0,0,2.0115,2.0117,2.0197,2.0198,2.0198,2.0222,2.0223,2.0223,2.0178,2.0176,2.0174,2.0173,2.0201,2.0203,2.0206,0,0,0,0,0,0,0,0,0,0,0,0,0,2.0147,2.0117,2.0197,2.0179,2.0177,2.0222,2.0223,2.0223,2.0179,2.0176,2.0174,2.0172,2.02,2.0203,2.0206,2.0272,0,0,2.0216,2.0218,0,0,0,0,0,0,0,0,2.0145,2.015,2.0181,2.018,2.0178,2.0195,2.0204,2.024,2.0179,2.0178,2.0173,2.0171,2.0201,2.0204,2.0214,2.0273,2.0274,2.0216,2.0218,2.022,2.0221,0,0,0,0,0,0,0,2.0143,2.0148,2.0207,2.0182,2.018,2.017,2.0172,2.021,2.0202,2.0178,2.0175,2.0178,2.02,2.0211,2.0214,2.0275,2.0216,2.0219,2.0221,2.0222,2.0391,2.0394,0,0,0,0,0,0,2.0142,2.0147,2.0207,2.0208,2.0156,2.0174,2.0176,2.0192,2.0202,2.0201,2.018,2.0176,2.0207,2.0211,2.0215,2.0294,2.022,2.0223,2.0225,2.0389,2.0392,2.0395,0,0,0,0,0,0,2.0141,2.0148,2.0206,2.0177,2.0183,2.0177,2.0196,2.0193,2.0204,2.0203,2.0202,2.0192,2.0205,2.0211,2.0258,2.0294,2.0224,2.0227,2.0386,2.039,2.0393,2.0451,0,0,0,0,0,0,2.0139,2.0148,2.0171,2.0177,2.0185,2.0247,2.0198,2.0196,2.021,2.0204,2.0214,2.0214,2.0204,2.0254,2.0262,2.0297,2.023,2.0383,2.0388,2.0392,2.0446,2.0457,2.0466,0,0,0,0,0,2.0136,2.0187,2.0173,2.018,2.0214,2.0249,2.0254,2.024,2.0213,2.0237,2.0237,2.0214,2.0289,2.0259,2.0267,2.0305,2.038,2.0386,2.0392,2.0442,2.0455,2.0465,0,0,0,0,0,0,2.0185,2.0187,2.0172,2.0226,2.0238,2.0242,2.0272,2.0254,2.0274,2.0269,2.0252,2.0254,2.0306,2.031,2.0277,2.037,2.033,2.0338,2.0366,2.0378,2.0387,2.0386,2.0232,0,0,0,0,0,2.0203,2.023,2.023,2.0278,2.0285,2.0278,2.0293,2.0281,2.0293,2.0298,2.0301,2.0315,2.0342,2.036,2.0384,2.0447,2.0449,2.0477,2.0486,2.0494,2.0502,2.0537,2.055,2.0413,2.0413,2.0413,0,0,2.0239,2.0243,2.0261,2.0289,2.0296,2.0327,2.0282,2.0316,2.0339,2.0304,2.0349,2.0352,2.0366,2.0422,2.0447,2.0427,2.054,2.0502,2.0508,2.0511,2.0544,2.0557,2.0569,2.0417,2.0417,2.0416,0,0,2.032,2.0325,2.0366,2.0376,2.0388,2.0383,2.0394,2.0401,2.0402,2.0447,2.0422,2.0449,2.0495,2.0507,2.0519,2.0608,2.0587,2.0616,2.0667,2.0702,2.0713,2.0722,2.0755,2.0767,2.0623,2.0623,2.0623,0,2.0363,2.0406,2.039,2.0426,2.044,2.041,2.0453,2.0463,2.0483,2.0494,2.0471,2.053,2.0537,2.0596,2.0618,2.0628,2.0641,2.0615,2.0712,2.0722,2.073,2.0762,2.0774,2.0627,2.0626,2.0626,2.0626,0,2.046,2.0491,2.0523,2.0544,2.0561,2.06,2.0592,2.0612,2.0599,2.0598,2.0646,2.0653,2.068,2.0693,2.0681,2.0752,2.0739,2.0715,2.0674,2.0747,2.0776,2.0788,2.0632,2.063,2.0629,2.0628,0,0,2.0572,2.0584,2.0597,2.0607,2.0619,2.0644,2.0683,2.0708,2.0727,2.0742,2.0776,2.0817,2.0795,2.0808,2.0798,2.0828,2.09,2.08,2.08,2.082,2.0981,2.1,2.1014,2.0887,2.0889,2.0891,2.098,0,2.0654,2.072,2.0708,2.0773,2.0803,2.0776,2.081,2.0822,2.0822,2.0849,2.0849,2.0879,2.0846,2.0855,2.0884,2.0885,2.0933,2.0879,2.0919,2.0921,2.0918,2.1029,2.1048,2.1132,2.0991,2.0993,2.0994,0,2.0757,2.0777,2.0846,2.0856,2.0868,2.0899,2.0923,2.0948,2.0962,2.096,2.0977,2.0961,2.1002,2.0961,2.1018,2.0982,2.0998,2.1002,2.1004,2.1008,2.0963,2.1037,2.1158,2.1171,2.1012,2.1011,2.1009,0,2.0834,2.0878,2.0925,2.0934,2.0947,2.097,2.0976,2.0989,2.1006,2.1027,2.1038,2.1064,2.1079,2.11,2.1093,2.1063,2.1152,2.111,2.1153,2.1153,2.1173,2.1172,2.13,2.1182,2.1182,2.1181,2.1181,0,2.0927,2.097,2.096,2.0989,2.1038,2.1024,2.1073,2.1076,2.1088,2.1119,2.1097,2.1126,2.1114,2.1143,2.1138,2.1187,2.1193,2.1194,2.1192,2.1196,2.1197,2.1207,2.1202,2.1185,2.1184,2.1183,2.1183,0,2.1021,2.1015,2.1065,2.1074,2.1077,2.1113,2.1121,2.1149,2.1148,2.1187,2.1195,2.1194,2.1227,2.1222,2.1259,2.1255,2.1317,2.1308,2.1312,2.131,2.1354,2.1351,2.1494,2.1513,2.1382,2.1383,2.1384,0,2.108,2.1113,2.1126,2.1145,2.1153,2.1183,2.1201,2.119,2.1209,2.123,2.1256,2.1288,2.1312,2.1367,2.137,2.1399,2.139,2.1439,2.1395,2.1399,2.1393,2.1391,2.1395,2.1448,2.1449,2.145,2.1451,0,2.1188,2.1184,2.121,2.1236,2.1258,2.1278,2.1295,2.1312,2.1303,2.1327,2.136,2.138,2.1418,2.145,2.1477,2.1485,2.1468,2.1465,2.1477,2.1482,2.1484,2.1485,2.1337,2.1462,2.1461,2.146,2.146,2.1459,2.1267,2.1296,2.131,2.1341,2.1353,2.1371,2.1398,2.1401,2.1429,2.1459,2.1451,2.149,2.1506,2.1541,2.1552,2.1584,2.1566,2.1582,2.1587,2.1591,2.1597,2.1478,2.1588,2.1588,2.1588,2.1588,2.1587,0,2.1375,2.1383,2.1411,2.1437,2.1462,2.1443,2.1462,2.1484,2.1519,2.1535,2.156,2.16,2.1632,2.1638,2.1668,2.1692,2.1685,2.1701,2.1699,2.1702,2.1611,2.1598,2.1706,2.1706,2.1706,2.1706,2.1706,2.1706,2.1434,2.1482,2.1481,2.1536,2.1544,2.1582,2.1595,2.1612,2.1625,2.1671,2.1697,2.1701,2.1714,2.1745,2.1774,2.1775,2.1788,2.1807,2.1805,2.172,2.1708,2.1697,2.1685,2.181,2.181,2.1894,2.1895,2.1896]},{"header":{"parameterUnit":"m.s-1","parameterCategory":1,"la1":30.2991,"la2":30.254,"lo1":-89.0895,"lo2":-89.0444,"dy":0.0017,"dx":0.0017,"nx":28,"ny":28,"refTime":"2024-12-10T03:00:00:Z","depth":0,"parameterNumber":3,"parameterNumberName":"V-component_of_WINDS"},"data":[0,0,0,0,0,0,0,0,0,0,0,0,0,0,0,0,0,0,0,0,0,0,0,0,0,0,0,0,0,0,0,0,0,0,0,0,0,0,0,0,0,0,0,0,0,0,0,0,0,0,0,0,0,0,0,0,0,0,4.427,4.4271,0,4.4371,4.4372,4.4373,4.4371,4.437,4.4368,4.4367,4.4472,4.4476,4.448,0,0,0,0,0,0,0,0,0,0,0,0,0,4.4077,4.408,4.427,4.4271,4.4272,4.4371,4.4372,4.4374,4.4371,4.437,4.4368,4.4366,4.447,4.4475,4.448,0,0,0,0,0,0,0,0,0,0,0,0,0,4.4168,4.4082,4.4269,4.4283,4.4285,4.4371,4.4372,4.4374,4.4372,4.437,4.4367,4.4366,4.4469,4.4475,4.4481,4.456,0,0,4.4499,4.4502,0,0,0,0,0,0,0,0,4.4162,4.4175,4.428,4.4282,4.4285,4.4356,4.4343,4.4436,4.4372,4.4339,4.4367,4.4365,4.4435,4.4444,4.4467,4.4565,4.4569,4.45,4.4503,4.4506,4.4508,0,0,0,0,0,0,0,4.4156,4.417,4.431,4.4281,4.4284,4.4285,4.4295,4.436,4.4397,4.4342,4.4342,4.4354,4.4436,4.4461,4.447,4.4571,4.45,4.4505,4.4509,4.4511,4.4741,4.4743,0,0,0,0,0,0,4.4147,4.4165,4.4307,4.4313,4.4217,4.429,4.4302,4.4335,4.4397,4.4404,4.4355,4.4353,4.4452,4.4463,4.4473,4.4572,4.4506,4.4512,4.4515,4.4738,4.4741,4.4744,0,0,0,0,0,0,4.4143,4.4159,4.4302,4.4239,4.4257,4.4295,4.4333,4.4338,4.4364,4.4407,4.4414,4.4374,4.4451,4.4465,4.4539,4.4576,4.4515,4.452,4.4736,4.4739,4.4743,4.4769,0,0,0,0,0,0,4.4137,4.4158,4.4188,4.424,4.4261,4.4366,4.4335,4.4342,4.4374,4.4372,4.4427,4.4434,4.445,4.453,4.4545,4.4583,4.4525,4.4732,4.4737,4.4742,4.4765,4.4773,4.478,0,0,0,0,0,4.413,4.419,4.4189,4.4206,4.4298,4.4368,4.438,4.4397,4.4377,4.4408,4.4436,4.4432,4.4569,4.4537,4.4554,4.4595,4.473,4.4736,4.4741,4.4761,4.4771,4.4779,0,0,0,0,0,0,4.4141,4.4197,4.4197,4.4275,4.4317,4.4367,4.4406,4.4407,4.4455,4.4451,4.4471,4.4484,4.4558,4.4584,4.4548,4.4676,4.4647,4.4656,4.4657,4.4666,4.4674,4.4667,4.453,0,0,0,0,0,4.4153,4.4204,4.425,4.4315,4.4336,4.4368,4.4398,4.4409,4.4453,4.447,4.4503,4.4547,4.46,4.4634,4.4685,4.4768,4.4781,4.4805,4.4812,4.4818,4.4826,4.4874,4.4886,4.4762,4.4762,4.4762,0,0,4.4177,4.4214,4.4245,4.4318,4.4352,4.4405,4.4382,4.4439,4.448,4.4479,4.4551,4.4577,4.4627,4.4707,4.4743,4.473,4.4863,4.4825,4.4829,4.4834,4.4881,4.4893,4.4903,4.4766,4.4765,4.4765,0,0,4.425,4.4282,4.4341,4.4375,4.4426,4.4447,4.4461,4.4512,4.453,4.4603,4.4604,4.4653,4.4743,4.4779,4.4809,4.4898,4.4897,4.4914,4.4953,4.5,4.501,4.5019,4.5053,4.5064,4.4922,4.4922,4.4922,0,4.4274,4.4354,4.4371,4.4429,4.4462,4.4464,4.4525,4.4558,4.4623,4.4646,4.463,4.4746,4.4779,4.4868,4.489,4.4914,4.4932,4.4908,4.5007,4.5016,4.5025,4.5057,4.5069,4.4924,4.4923,4.4923,4.4923,0,4.4382,4.4437,4.4479,4.4543,4.4581,4.4639,4.4667,4.4703,4.4711,4.4734,4.481,4.485,4.4911,4.4932,4.494,4.5024,4.5014,4.5003,4.4974,4.5038,4.5069,4.5081,4.4926,4.4926,4.4925,4.4925,0,0,4.4463,4.4537,4.4552,4.4582,4.464,4.4684,4.4744,4.4803,4.4835,4.488,4.4932,4.501,4.5,4.5035,4.5046,4.5087,4.5158,4.5071,4.5072,4.5087,4.5256,4.5265,4.5279,4.5157,4.5159,4.5161,4.5252,0,4.4543,4.4649,4.4668,4.4761,4.4815,4.4818,4.4871,4.4913,4.4936,4.4986,4.5012,4.5067,4.5049,4.507,4.5111,4.514,4.5192,4.5134,4.5207,4.521,4.5196,4.5295,4.5305,4.5389,4.5264,4.5266,4.5268,0,4.465,4.4699,4.4798,4.4851,4.4874,4.4921,4.4978,4.5024,4.5073,4.5087,4.5127,4.5134,4.5198,4.5167,4.5256,4.5217,4.5248,4.5267,4.5271,4.5279,4.5243,4.5308,4.5415,4.5429,4.5286,4.5285,4.5283,0,4.4702,4.4793,4.4864,4.489,4.4952,4.4986,4.5014,4.506,4.5095,4.5145,4.5169,4.5226,4.5257,4.5302,4.5325,4.5299,4.5414,4.5384,4.5429,4.5429,4.5454,4.5453,4.557,4.5471,4.5471,4.5471,4.5471,0,4.479,4.4851,4.4889,4.4933,4.5003,4.5024,4.5092,4.5119,4.5161,4.5211,4.5218,4.5265,4.5292,4.5344,4.5363,4.5436,4.545,4.5464,4.5469,4.5465,4.5463,4.5486,4.5482,4.5474,4.5474,4.5473,4.5472,0,4.486,4.4888,4.4967,4.502,4.5035,4.5084,4.513,4.5174,4.5198,4.5262,4.5279,4.5317,4.5379,4.5406,4.5482,4.5495,4.5579,4.5578,4.5562,4.5564,4.5609,4.5606,4.5747,4.5768,4.5654,4.5655,4.5656,0,4.4915,4.4962,4.5021,4.5056,4.5085,4.514,4.5177,4.52,4.5238,4.5298,4.5335,4.5397,4.5448,4.5547,4.5582,4.564,4.5643,4.5688,4.5651,4.5647,4.5646,4.5643,4.5649,4.5695,4.5696,4.5697,4.5698,0,4.501,4.5022,4.5075,4.5133,4.5176,4.5223,4.5269,4.5297,4.5328,4.537,4.5434,4.5473,4.5552,4.5614,4.5676,4.5705,4.5708,4.5709,4.5723,4.572,4.571,4.5719,4.5583,4.5706,4.5705,4.5705,4.5704,4.5704,4.5076,4.5119,4.5169,4.5227,4.5264,4.5308,4.5352,4.5383,4.5436,4.5502,4.5512,4.5581,4.563,4.5713,4.5745,4.58,4.5789,4.5808,4.5814,4.5819,4.5823,4.57,4.581,4.581,4.581,4.581,4.581,0,4.5174,4.5206,4.526,4.5324,4.5371,4.5369,4.5421,4.546,4.552,4.5566,4.5616,4.5691,4.5752,4.5792,4.5854,4.589,4.5893,4.5906,4.5904,4.5912,4.5828,4.581,4.5903,4.5903,4.5903,4.5903,4.5903,4.5903,4.523,4.5304,4.5322,4.5415,4.5447,4.5515,4.5544,4.5585,4.5622,4.5705,4.5756,4.5781,4.5826,4.5892,4.5948,4.5958,4.5982,4.5996,4.6006,4.5927,4.5917,4.5908,4.5892,4.6,4.6,4.6085,4.6086,4.6087]}]]